Location: Frydek-Mistek
(49.6830°N, 18.3330°E)
Time: 03:52:22
(UTC+02:00)

ISS - Pass Details

Date: 20 May 2021
Orbit: 417 x 422 km, 51.6° (Epoch: 13 June)

Event Time Altitude Azimuth Distance (km) Brightness Sun altitude
Rises 22:55:47 0° 278° (W) 2,366 0.6 -16.2°
Reaches altitude 10° 22:57:54 10° 282° (WNW) 1,503 -0.4 -16.3°
Maximum altitude 23:01:15 60° 4° (N) 485 -3.2 -16.6°
Enters shadow 23:04:12 13° 84° (E) 1,345 -1.4 -16.8°
